Weather History for KPVC - April, 2012

Change the Weather History Date:

Wednesday, April 4, 2012

  Actual Average Record
Temperature  
Mean Temperature 45 °F -  
Max Temperature 57 °F 45 °F 64 °F (1952)
Min Temperature 33 °F 35 °F 19 °F (1954)
Degree Days  
Heating Degree Days 20    
Moisture  
Dew Point 28 °F    
Average Humidity 48    
Maximum Humidity 75    
Minimum Humidity 23    
Precipitation  
Precipitation 0.00 in - - ()
Sea Level Pressure  
Sea Level Pressure 29.58 in    
Wind  
Wind Speed 7 mph (West)    
Max Wind Speed 24 mph    
Max Gust Speed 32 mph    
Visibility 10 miles    
Events      
Averages and records for this station are not official NWS values.
T = Trace of Precipitation, MM = Missing Value Source: NWS Daily Summary

Daily Weather History Graph

Daily Weather History Graph

Search for Another Location

Airport or City:

Trip Planner

Search our weather history database for the weather conditions in past years. The results will help you decide how hot, cold, wet, or windy it might be!

Date:

Astronomy

Apr. 04, 2012 Rise Set
Actual Time 6:17 AM EDT 7:10 PM EDT
Civil Twilight 5:49 AM EDT 7:38 PM EDT
Nautical Twilight 5:15 AM EDT 8:12 PM EDT
Astronomical Twilight 4:40 AM EDT 8:47 PM EDT
Moon 4:58 PM EDT (4/4) 4:40 AM EDT (4/4)
Length of Visible Light 13h 49m
Length of Day
12h 52m
Waxing Gibbous, 93% of the Moon is Illuminated
Apr 4
Waxing Gibbous
Apr 6
Full
Apr 13
Last Quarter
Apr 21
New
Apr 29
First Quarter

Hourly Weather History & Observations

Time (EDT) Temp. Windchill Dew Point Humidity Pressure Visibility Wind Dir Wind Speed Gust Speed Precip Events Conditions
12:15 AM 42.8 °F 38.0 °F 32.0 °F 66% 29.72 in 10.0 mi WSW 8.1 mph - N/A   Clear
12:35 AM 44.6 °F 39.7 °F 32.0 °F 61% 29.72 in 10.0 mi West 9.2 mph - N/A   Clear
1:15 AM 44.6 °F 40.2 °F 30.2 °F 57% 29.72 in 10.0 mi WNW 8.1 mph - N/A   Mostly Cloudy
1:35 AM 46.4 °F 41.9 °F 30.2 °F 53% 29.71 in 10.0 mi WNW 9.2 mph - N/A   Mostly Cloudy
2:15 AM 46.4 °F 43.5 °F 30.2 °F 53% 29.69 in 10.0 mi WNW 5.8 mph - N/A   Overcast
2:35 AM 44.6 °F 40.2 °F 32.0 °F 61% 29.69 in 10.0 mi West 8.1 mph - N/A   Overcast
2:55 AM 44.6 °F 39.2 °F 33.8 °F 66% 29.70 in 10.0 mi WNW 10.4 mph - N/A   Overcast
3:15 AM 44.6 °F 39.7 °F 32.0 °F 61% 29.69 in 10.0 mi WNW 9.2 mph - N/A   Overcast
3:35 AM 44.6 °F 39.2 °F 30.2 °F 57% 29.70 in 10.0 mi NW 10.4 mph - N/A   Overcast
3:55 AM 44.6 °F 40.2 °F 30.2 °F 57% 29.71 in 10.0 mi NW 8.1 mph - N/A   Overcast
4:35 AM 44.6 °F - 32.0 °F 61% 29.68 in 10.0 mi Calm Calm - N/A   Overcast
4:55 AM 44.6 °F - 32.0 °F 61% 29.67 in 10.0 mi Calm Calm - N/A   Overcast
5:15 AM 44.6 °F 43.1 °F 33.8 °F 66% 29.67 in 10.0 mi NNW 3.5 mph - N/A   Overcast
5:35 AM 39.2 °F - 30.2 °F 70% 29.66 in 10.0 mi Calm Calm - N/A   Mostly Cloudy
5:55 AM 37.4 °F - 28.4 °F 70% 29.65 in 10.0 mi Calm Calm - N/A   Mostly Cloudy
6:15 AM 35.6 °F - 28.4 °F 75% 29.65 in 10.0 mi Calm Calm - N/A   Partly Cloudy
6:35 AM 33.8 °F 30.8 °F 26.6 °F 75% 29.67 in 10.0 mi NNW 3.5 mph - N/A   Clear
7:15 AM 35.6 °F - 28.4 °F 75% 29.66 in 10.0 mi Calm Calm - N/A   Clear
7:35 AM 42.8 °F 41.1 °F 32.0 °F 66% 29.65 in 10.0 mi WSW 3.5 mph - N/A   Clear
8:56 AM 48.2 °F - 30.2 °F 50% 29.63 in 10.0 mi West 6.9 mph - N/A   Scattered Clouds
9:15 AM 50.0 °F - 26.6 °F 40% 29.63 in 10.0 mi WSW 8.1 mph - N/A   Clear
9:55 AM 51.8 °F - 26.6 °F 38% 29.61 in 10.0 mi WSW 5.8 mph - N/A   Clear
10:15 AM 51.8 °F - 28.4 °F 41% 29.60 in 10.0 mi WNW 6.9 mph - N/A   Clear
10:35 AM 51.8 °F - 30.2 °F 44% 29.59 in 10.0 mi SW 9.2 mph - N/A   Clear
11:15 AM 53.6 °F - 23.0 °F 30% 29.57 in 10.0 mi SW 6.9 mph - N/A   Clear
11:35 AM 53.6 °F - 21.2 °F 28% 29.56 in 10.0 mi SW 6.9 mph - N/A   Clear
11:55 AM 53.6 °F - 19.4 °F 26% 29.55 in 10.0 mi SW 6.9 mph - N/A   Clear
12:15 PM 53.6 °F - 19.4 °F 26% 29.53 in 10.0 mi SSW 4.6 mph - N/A   Clear
12:55 PM 53.6 °F - 17.6 °F 24% 29.52 in 10.0 mi NW 6.9 mph - N/A   Clear
1:35 PM 55.4 °F - 19.4 °F 25% 29.50 in 10.0 mi WSW 3.5 mph - N/A   Clear
1:55 PM 57.2 °F - 19.4 °F 23% 29.49 in 10.0 mi SSW 8.1 mph - N/A   Clear
2:15 PM 57.2 °F - 19.4 °F 23% 29.49 in 10.0 mi South 10.4 mph - N/A   Clear
2:35 PM 57.2 °F - 21.2 °F 25% 29.48 in 10.0 mi South 10.4 mph - N/A   Clear
2:55 PM 57.2 °F - 21.2 °F 25% 29.47 in 10.0 mi SSW 10.4 mph - N/A   Clear
3:15 PM 57.2 °F - 21.2 °F 25% 29.47 in 10.0 mi South 6.9 mph - N/A   Clear
3:35 PM 57.2 °F - 21.2 °F 25% 29.46 in 10.0 mi Calm Calm - N/A   Mostly Cloudy
3:55 PM 57.2 °F - 19.4 °F 23% 29.46 in 10.0 mi NW 4.6 mph - N/A   Scattered Clouds
4:15 PM 57.2 °F - 23.0 °F 27% 29.46 in 10.0 mi Calm Calm - N/A   Clear
4:55 PM 55.4 °F - 24.8 °F 31% 29.46 in 10.0 mi NW 4.6 mph - N/A   Clear
5:15 PM 55.4 °F - 23.0 °F 29% 29.47 in 10.0 mi Calm Calm - N/A   Clear
5:35 PM 55.4 °F - 19.4 °F 25% 29.46 in 10.0 mi Calm Calm - N/A   Clear
5:55 PM 55.4 °F - 21.2 °F 26% 29.47 in 10.0 mi West 3.5 mph - N/A   Clear
6:35 PM 51.8 °F - 26.6 °F 38% 29.49 in 10.0 mi Calm Calm - N/A   Mostly Cloudy
6:55 PM 50.0 °F - 28.4 °F 43% 29.49 in 10.0 mi Calm Calm - N/A   Mostly Cloudy
7:35 PM 46.4 °F 44.3 °F 30.2 °F 53% 29.51 in 10.0 mi WSW 4.6 mph - N/A   Overcast
7:55 PM 46.4 °F - 32.0 °F 57% 29.52 in 10.0 mi Calm Calm - N/A   Overcast
8:15 PM 48.2 °F - 30.2 °F 50% 29.52 in 10.0 mi WNW 5.8 mph - N/A   Overcast
8:35 PM 50.0 °F - 33.8 °F 54% 29.54 in 10.0 mi WNW 13.8 mph - N/A   Overcast
8:55 PM 50.0 °F - 33.8 °F 54% 29.55 in 10.0 mi WNW 21.9 mph 32.2 mph N/A   Overcast
9:15 PM 48.2 °F - 35.6 °F 62% 29.56 in 10.0 mi WNW 24.2 mph 31.1 mph N/A   Overcast
9:35 PM 46.4 °F 40.1 °F 35.6 °F 66% 29.56 in 10.0 mi NW 15.0 mph 24.2 mph N/A   Overcast
10:15 PM 46.4 °F 39.8 °F 35.6 °F 66% 29.58 in 10.0 mi WNW 16.1 mph - N/A   Overcast
10:35 PM 46.4 °F 39.5 °F 35.6 °F 66% 29.58 in 10.0 mi WNW 17.3 mph 23.0 mph N/A   Overcast
10:55 PM 46.4 °F 39.0 °F 35.6 °F 66% 29.59 in 10.0 mi WNW 19.6 mph 25.3 mph N/A   Scattered Clouds
11:15 PM 44.6 °F 36.6 °F 33.8 °F 66% 29.60 in 10.0 mi WNW 19.6 mph 25.3 mph N/A   Clear
11:35 PM 44.6 °F 38.4 °F 33.8 °F 66% 29.61 in 10.0 mi WNW 12.7 mph - N/A   Clear
11:55 PM 44.6 °F 37.2 °F 33.8 °F 66% 29.61 in 10.0 mi NW 17.3 mph 24.2 mph N/A   Partly Cloudy